Accueil
METAR-TAF:

METAR-TAF

Aéroports :

Aéroport de Saint-Brieuc Armor

Saint-Brieuc, France

latitude: 48-32N, longitude: 002-51W, altitude: 138 m

Observation

Le bulletin a été fait il y a 32 minutes, à 16:30 UTC
Vent 16 kt de ouest/sud-ouest
Température 19°C
Humidité 56%
Pression 1014 hPa
Visibilité 10 km ou plus
Quelques nuages à une hauteur de 4100 ft
Nuages fragmentés à une hauteur de 7000 ft

METAR: LFRT 281630Z AUTO 24016KT 9999 FEW041 BKN070 19/10 Q1014

Heure: 19:02 (17:02 UTC)


TAF: absent

Observations et prévisions météorologiques de plus de 4000 aéroports (messages METAR et TAF).

Les stations disponibles sont représentées par des disques jaunes et rouges sur la carte.

Passer la souris dessus pour voir le nom de la station.

Cliquer dessus pour voir les observations et prévisions météorologiques.

Pour changer de carte: cliquez sur les boutons verts avec une croix noire pour zoomer, sur le bouton vert avec un tiret pour effectuer un zoom arrière, ou sur les flèches vertes pour les cartes adjacentes.


METAR-TAF: